YAOGAN-22

Last updated on Tue Jul 01 2025 00:02:29 GMT+0000 (Coordinated Universal Time)

1 40275U 14063A 25181.37122473 -.00000033 00000+0 36965-4 0 9997 2 40275 100.7195 322.6461 0005777 260.7292 99.3166 13.15512403513559
UTC large
Height (km)
Speed (km/s)
/
Latitude / Longitude
Inclination (degrees)
Orbital Period (minutes)
Azimuth
Elevation
Range (km)
Doppler Factor

Next 0 passes for location: London (51.5072 / 0.1276)

Sorry there are no passes over London.